This is the latest recevied weather packets stored in our database for station/object N1MCJ. If no packets are shown the sender has not sent any weather packets the latest 10 day(s).
| Time | Temp. | Humidity | Pressure | Rain* | Wind** | Luminosity | Snow |
|---|---|---|---|---|---|---|---|
| 1777847750 | 14.44° C | 31% | 1000.9 hPa | 0 mm | - | 38 W/m² | - |
| 1777846847 | 13.89° C | 31% | 1000.9 hPa | 0 mm | - | 44 W/m² | - |
| 1777845943 | 14.44° C | 32% | 1000.6 hPa | 0 mm | - | 74 W/m² | - |
| 1777845040 | 13.89° C | 32% | 1000.9 hPa | 0 mm | - | 260 W/m² | - |
| 1777844139 | 14.44° C | 35% | 1000.8 hPa | 0 mm | - | 325 W/m² | - |
| 1777843236 | 13.89° C | 35% | 1000.6 hPa | 0 mm | - | 387 W/m² | - |
| 1777842331 | 12.78° C | 35% | 1000.8 hPa | 0 mm | - | 433 W/m² | - |
| 1777841426 | 13.33° C | 35% | 1001.1 hPa | 0 mm | - | 64 W/m² | - |
| 1777840523 | 12.78° C | 35% | 1000.7 hPa | 0 mm | - | 382 W/m² | - |
| 1777839621 | 13.89° C | 35% | 1000.7 hPa | 0 mm | - | 543 W/m² | - |
| 1777838718 | 12.78° C | 37% | 1000.6 hPa | 0 mm | - | 607 W/m² | - |
| 1777837815 | 12.22° C | 39% | 1001 hPa | 0 mm | - | 242 W/m² | - |
| 1777836914 | 12.78° C | 38% | 1001 hPa | 0 mm | - | 673 W/m² | - |
| 1777836014 | 11.67° C | 38% | 1001.2 hPa | 0 mm | - | 139 W/m² | - |
| 1777835110 | 12.22° C | 37% | 1001 hPa | 0 mm | - | 618 W/m² | - |
| 1777834209 | 12.22° C | 37% | 1001 hPa | 0 mm | - | 445 W/m² | - |
| 1777833304 | 11.67° C | 37% | 1000.9 hPa | 0 mm | - | 319 W/m² | - |
| 1777832403 | 12.22° C | 36% | 1000.9 hPa | 0 mm | - | 232 W/m² | - |
| 1777831500 | 11.67° C | 35% | 1001 hPa | 0 mm | - | 538 W/m² | - |
| 1777830596 | 11.11° C | 37% | 1000.9 hPa | 0 mm | - | 131 W/m² | - |
| 1777829691 | 11.67° C | 38% | 1001 hPa | 0 mm | - | 144 W/m² | - |
| 1777828788 | 11.11° C | 44% | 1000.9 hPa | 0 mm | - | 360 W/m² | - |
| 1777827884 | 10° C | 47% | 1001.2 hPa | 0 mm | - | 146 W/m² | - |
| 1777826981 | 10° C | 44% | 1001.3 hPa | 0 mm | - | 135 W/m² | - |
| 1777826078 | 10.56° C | 44% | 1001.2 hPa | 0 mm | - | 235 W/m² | - |
* Rain latest hour (hover to see other rain measurements)
** Current wind speed in m/s (hover to see current wind gust speed)